Date String (YYYY-MM-DD hh:mm:ss) UTC,Instrument flags,Ambient pressure (hPa),Sample flow (lpm),Bypass flow (lpm),Sample temperature (°C),Ambient temperature (°C),ASC tube jacket temperature (°C),LED temperature (°C),Box temperature (°C),Sample RH (%),Span deviation,Mass concentration (μg/m³),Mass concentration (μg/m³),Mass concentration (μg/m³)
DateTimeUTC,F1_M11,P_M11,Q1_M11,Q2_M11,T1_M11,T2_M11,T3_M11,T4_M11,T5_M11,U1_M11,ZSPAN_M11,X0_M11,X2_M11,X1_M11
2022-12-09 06:00:00,,0827.4,5.00,0.00,21.8,20.0,00.0,30.8,23.5,06.4,0000.0,0002.74,0000.89,0000.68
2022-12-09 06:01:00,,0827.4,4.98,0.00,21.8,19.9,00.0,30.7,23.5,06.4,0000.0,0002.74,0000.89,0000.69
2022-12-09 06:02:00,,0827.4,4.99,0.00,21.7,19.9,00.0,30.7,23.4,06.5,0000.0,0002.74,0000.89,0000.71
2022-12-09 06:03:00,,0827.4,5.03,0.00,21.7,19.8,00.0,30.7,23.4,06.5,0000.0,0002.80,0000.93,0000.73
2022-12-09 06:04:00,,0827.3,4.99,0.00,21.7,19.8,00.0,30.7,23.4,06.6,0000.0,0002.79,0000.93,0000.74
2022-12-09 06:05:00,,0827.3,4.98,0.00,21.7,19.7,00.0,30.7,23.3,06.7,0000.0,0002.76,0000.92,0000.76
2022-12-09 06:06:00,,0827.3,5.01,0.00,21.6,19.7,00.0,30.6,23.3,06.7,0000.0,0002.69,0000.91,0000.77
2022-12-09 06:07:00,,0827.2,5.01,0.00,21.6,19.6,00.0,30.6,23.2,06.7,0000.0,0002.65,0000.90,0000.77
2022-12-09 06:08:00,,0827.3,4.99,0.00,21.6,19.7,00.0,30.6,23.2,06.7,0000.0,0002.47,0000.93,0000.78
2022-12-09 06:09:00,,0827.2,4.99,0.00,21.6,20.4,00.0,30.5,23.4,06.6,0000.0,0001.39,0000.97,0000.78
2022-12-09 06:10:00,,0827.2,5.01,0.00,21.7,21.4,00.0,30.5,23.6,06.6,0000.0,0001.47,0001.01,0000.79
2022-12-09 06:11:00,,0827.2,5.01,0.00,21.8,21.6,00.0,30.5,23.7,06.4,0000.0,0001.44,0001.00,0000.78
2022-12-09 06:12:00,,0827.2,5.01,0.00,21.8,21.2,00.0,30.6,23.6,06.3,0000.0,0001.45,0001.01,0000.78
2022-12-09 06:13:00,,0827.3,4.99,0.00,21.8,20.8,00.0,30.6,23.6,06.5,0000.0,0001.49,0001.02,0000.78
2022-12-09 06:14:00,,0827.4,4.99,0.00,21.7,20.4,00.0,30.6,23.5,06.6,0000.0,0001.57,0001.02,0000.77
2022-12-09 06:15:00,,0827.4,5.01,0.00,21.7,20.1,00.0,30.6,23.4,06.7,0000.0,0001.57,0001.02,0000.77
2022-12-09 06:16:00,,0827.4,5.02,0.00,21.6,19.9,00.0,30.6,23.3,06.6,0000.0,0001.60,0001.03,0000.78
2022-12-09 06:17:00,,0827.4,4.99,0.00,21.6,19.7,00.0,30.6,23.2,06.6,0000.0,0001.59,0001.03,0000.78
2022-12-09 06:18:00,,0827.4,4.98,0.00,21.5,19.5,00.0,30.5,23.2,06.6,0000.0,0001.61,0001.04,0000.79
2022-12-09 06:19:00,,0827.4,5.03,0.00,21.5,19.4,00.0,30.5,23.1,06.5,0000.0,0001.60,0001.03,0000.79
2022-12-09 06:20:00,,0827.4,5.00,0.00,21.4,19.3,00.0,30.5,23.1,06.6,0000.0,0001.65,0001.03,0000.80
2022-12-09 06:21:00,,0827.4,4.98,0.00,21.4,19.3,00.0,30.5,23.0,06.6,0000.0,0001.63,0001.01,0000.81
2022-12-09 06:22:00,,0827.4,5.02,0.00,21.4,19.3,00.0,30.4,23.0,06.6,0000.0,0001.65,0001.01,0000.81
2022-12-09 06:23:00,,0827.4,5.00,0.00,21.3,19.3,00.0,30.4,23.0,06.6,0000.0,0001.72,0001.03,0000.81
2022-12-09 06:24:00,,0827.3,4.98,0.00,21.4,20.2,00.0,30.3,23.1,06.6,0000.0,0001.70,0001.03,0000.82
2022-12-09 06:25:00,,0827.2,5.00,0.00,21.5,21.4,00.0,30.3,23.4,06.5,0000.0,0001.60,0001.03,0000.83
2022-12-09 06:26:00,,0827.2,5.01,0.00,21.6,21.7,00.0,30.4,23.5,06.5,0000.0,0001.58,0001.02,0000.83
2022-12-09 06:27:00,,0827.3,5.00,0.00,21.6,21.4,00.0,30.4,23.5,06.4,0000.0,0001.57,0001.01,0000.81
2022-12-09 06:28:00,,0827.3,5.01,0.00,21.6,21.1,00.0,30.4,23.5,06.4,0000.0,0001.57,0001.00,0000.80
2022-12-09 06:29:00,,0827.4,4.99,0.00,21.6,20.9,00.0,30.4,23.5,06.3,0000.0,0001.59,0001.00,0000.79
2022-12-09 06:30:00,,0827.5,5.00,0.00,21.6,20.7,00.0,30.4,23.4,06.3,0000.0,0001.65,0001.01,0000.79
2022-12-09 06:31:00,,0827.3,5.02,0.00,21.6,20.7,00.0,30.5,23.5,06.3,0000.0,0001.79,0001.01,0000.78
2022-12-09 06:32:00,,0827.2,5.01,0.00,21.7,20.6,00.0,30.5,23.5,06.2,0000.0,0001.87,0001.01,0000.78
2022-12-09 06:33:00,,0827.2,5.00,0.00,21.7,20.5,00.0,30.5,23.5,06.2,0000.0,0002.34,0001.01,0000.77
2022-12-09 06:34:00,,0827.2,4.99,0.00,21.7,20.5,00.0,30.5,23.5,06.2,0000.0,0002.36,0000.98,0000.78
2022-12-09 06:35:00,,0827.2,4.99,0.00,21.7,20.4,00.0,30.5,23.4,06.3,0000.0,0002.36,0000.98,0000.77
2022-12-09 06:36:00,,0827.1,4.99,0.00,21.7,20.4,00.0,30.5,23.5,06.3,0000.0,0002.34,0000.96,0000.75
2022-12-09 06:37:00,,0827.1,5.02,0.00,21.7,20.4,00.0,30.5,23.5,06.3,0000.0,0003.46,0000.96,0000.75
2022-12-09 06:38:00,,0827.1,5.01,0.00,21.7,20.3,00.0,30.5,23.5,06.5,0000.0,0003.85,0000.99,0000.75
2022-12-09 06:39:00,,0827.1,4.98,0.00,21.7,20.3,00.0,30.5,23.5,06.5,0000.0,0003.95,0001.02,0000.76
2022-12-09 06:40:00,,0827.1,4.99,0.00,21.7,20.3,00.0,30.5,23.5,06.6,0000.0,0003.97,0001.03,0000.76
2022-12-09 06:41:00,,0827.3,5.01,0.00,21.7,20.3,00.0,30.5,23.4,06.5,0000.0,0003.91,0001.01,0000.76
2022-12-09 06:42:00,,0827.0,5.02,0.00,21.7,20.3,00.0,30.5,23.4,06.5,0000.0,0003.72,0000.99,0000.76
2022-12-09 06:43:00,,0827.0,5.01,0.00,21.6,20.3,00.0,30.5,23.5,06.5,0000.0,0003.58,0001.01,0000.76
2022-12-09 06:44:00,,0827.0,4.98,0.00,21.7,20.2,00.0,30.5,23.5,06.5,0000.0,0003.25,0001.00,0000.76
2022-12-09 06:45:00,,0827.0,4.98,0.00,21.7,20.3,00.0,30.5,23.5,06.4,0000.0,0003.03,0001.00,0000.76
2022-12-09 06:46:00,,0827.2,5.01,0.00,21.7,21.1,00.0,30.4,23.6,06.4,0000.0,0003.18,0001.03,0000.77
2022-12-09 06:47:00,,0827.5,5.00,0.00,21.8,22.0,00.0,30.5,23.8,06.4,0000.0,0003.28,0001.06,0000.77
2022-12-09 06:48:00,,0827.4,5.00,0.00,21.9,21.9,00.0,30.5,23.9,06.5,0000.0,0002.71,0001.09,0000.79
2022-12-09 06:49:00,,0827.1,5.01,0.00,21.9,21.5,00.0,30.6,23.8,06.4,0000.0,0001.97,0001.07,0000.80
2022-12-09 06:50:00,,0827.3,4.99,0.00,21.9,21.3,00.0,30.6,23.8,06.4,0000.0,0001.86,0001.06,0000.82
2022-12-09 06:51:00,,0827.3,4.99,0.00,21.9,21.0,00.0,30.6,23.7,06.4,0000.0,0001.86,0001.07,0000.83
2022-12-09 06:52:00,,0827.2,4.99,0.00,21.9,20.9,00.0,30.6,23.7,06.4,0000.0,0001.88,0001.08,0000.83
2022-12-09 06:53:00,,0827.3,5.01,0.00,21.9,20.8,00.0,30.6,23.7,06.4,0000.0,0001.90,0001.11,0000.85
2022-12-09 06:54:00,,0827.3,5.02,0.00,21.9,20.7,00.0,30.6,23.6,06.4,0000.0,0001.80,0001.08,0000.86
2022-12-09 06:55:00,,0827.2,4.99,0.00,21.9,20.6,00.0,30.6,23.6,06.4,0000.0,0001.84,0001.10,0000.87
2022-12-09 06:56:00,,0827.1,4.99,0.00,21.8,20.5,00.0,30.6,23.6,06.3,0000.0,0001.76,0001.10,0000.89
2022-12-09 06:57:00,,0827.1,5.00,0.00,21.8,20.4,00.0,30.6,23.6,06.3,0000.0,0001.66,0001.11,0000.90
2022-12-09 06:58:00,,0827.1,5.01,0.00,21.8,20.4,00.0,30.6,23.6,06.2,0000.0,0001.57,0001.09,0000.92
2022-12-09 06:59:00,,0827.1,5.02,0.00,21.8,20.3,00.0,30.6,23.6,06.2,0000.0,0001.54,0001.10,0000.92
